Time,TemperatureF,DewpointF,PressureIn,WindDirection,WindDirectionDegrees,WindSpeedMPH,WindSpeedGustMPH,Humidity,HourlyPrecipIn,Conditions,Clouds,dailyrainin,SoftwareType,DateUTC
2013-05-15 00:00:00,66.0,40.3,29.69,North,0,7.0,20.0,39,0.00,,,-99.99,Weather View 32 v60,2013-05-15 05:00:00,
2013-05-15 00:10:00,66.0,40.9,29.70,NNW,338,5.0,18.0,40,0.00,,,-99.99,Weather View 32 v60,2013-05-15 05:10:00,
2013-05-15 00:15:00,66.0,41.6,29.70,NNW,338,10.0,18.0,41,0.00,,,-99.99,Weather View 32 v60,2013-05-15 05:15:00,
2013-05-15 00:25:00,65.0,41.3,29.70,North,0,8.0,18.0,42,0.00,,,-99.99,Weather View 32 v60,2013-05-15 05:25:00,
2013-05-15 00:30:00,65.0,41.3,29.71,NNW,338,12.0,18.0,42,0.00,,,-99.99,Weather View 32 v60,2013-05-15 05:30:00,
2013-05-15 00:35:00,65.0,41.9,29.71,NNE,22,8.0,18.0,43,0.00,,,-99.99,Weather View 32 v60,2013-05-15 05:35:00,
2013-05-15 00:40:00,65.0,41.9,29.71,North,0,8.0,18.0,43,0.00,,,-99.99,Weather View 32 v60,2013-05-15 05:40:00,
2013-05-15 00:45:00,65.0,42.5,29.72,North,0,11.0,19.0,44,0.00,,,-99.99,Weather View 32 v60,2013-05-15 05:45:00,
2013-05-15 00:50:00,65.0,42.5,29.72,NNW,338,12.0,19.0,44,0.00,,,-99.99,Weather View 32 v60,2013-05-15 05:50:00,
2013-05-15 00:55:00,65.0,42.5,29.72,NNW,338,10.0,21.0,44,0.00,,,-99.99,Weather View 32 v60,2013-05-15 05:55:00,
2013-05-15 01:00:00,64.0,41.6,29.73,NNW,338,11.0,21.0,44,0.00,,,-99.99,Weather View 32 v60,2013-05-15 06:00:00,
2013-05-15 01:10:00,64.0,42.8,29.73,NNW,338,10.0,21.0,46,0.00,,,-99.99,Weather View 32 v60,2013-05-15 06:10:00,
2013-05-15 01:15:00,64.0,42.8,29.74,North,0,9.0,21.0,46,0.00,,,-99.99,Weather View 32 v60,2013-05-15 06:15:00,
2013-05-15 01:20:00,63.0,42.4,29.74,North,0,6.0,21.0,47,0.00,,,-99.99,Weather View 32 v60,2013-05-15 06:20:00,
2013-05-15 01:25:00,63.0,42.4,29.75,North,0,8.0,21.0,47,0.00,,,-99.99,Weather View 32 v60,2013-05-15 06:25:00,
2013-05-15 01:30:00,62.0,42.0,29.75,North,0,8.0,21.0,48,0.00,,,-99.99,Weather View 32 v60,2013-05-15 06:30:00,
2013-05-15 01:35:00,62.0,42.6,29.75,NNE,22,5.0,21.0,49,0.00,,,-99.99,Weather View 32 v60,2013-05-15 06:35:00,
2013-05-15 01:40:00,62.0,42.6,29.76,North,0,5.0,21.0,49,0.00,,,-99.99,Weather View 32 v60,2013-05-15 06:40:00,
2013-05-15 01:45:00,61.0,42.2,29.76,NNW,338,8.0,21.0,50,0.00,,,-99.99,Weather View 32 v60,2013-05-15 06:45:00,
2013-05-15 01:50:00,61.0,42.2,29.76,NNE,22,8.0,21.0,50,0.00,,,-99.99,Weather View 32 v60,2013-05-15 06:50:00,
2013-05-15 01:55:00,61.0,42.7,29.77,North,0,10.0,21.0,51,0.00,,,-99.99,Weather View 32 v60,2013-05-15 06:55:00,
2013-05-15 02:00:00,61.0,42.7,29.77,NW,315,11.0,21.0,51,0.00,,,-99.99,Weather View 32 v60,2013-05-15 07:00:00,
2013-05-15 02:05:00,60.0,41.8,29.77,NNE,22,10.0,19.0,51,0.00,,,-99.99,Weather View 32 v60,2013-05-15 07:05:00,
2013-05-15 02:10:00,60.0,41.8,29.78,NNW,338,6.0,19.0,51,0.00,,,-99.99,Weather View 32 v60,2013-05-15 07:10:00,
2013-05-15 02:15:00,60.0,42.3,29.78,NNE,22,9.0,21.0,52,0.00,,,-99.99,Weather View 32 v60,2013-05-15 07:15:00,
2013-05-15 02:20:00,60.0,41.8,29.79,NNE,22,7.0,21.0,51,0.00,,,-99.99,Weather View 32 v60,2013-05-15 07:20:00,
2013-05-15 02:25:00,60.0,42.3,29.79,NNE,22,6.0,21.0,52,0.00,,,-99.99,Weather View 32 v60,2013-05-15 07:25:00,
2013-05-15 02:30:00,59.0,41.4,29.79,North,0,10.0,21.0,52,0.00,,,-99.99,Weather View 32 v60,2013-05-15 07:30:00,
2013-05-15 02:35:00,59.0,41.4,29.79,NNW,338,7.0,21.0,52,0.00,,,-99.99,Weather View 32 v60,2013-05-15 07:35:00,
2013-05-15 02:40:00,59.0,41.4,29.80,NNE,22,7.0,21.0,52,0.00,,,-99.99,Weather View 32 v60,2013-05-15 07:40:00,
2013-05-15 02:45:00,59.0,41.9,29.80,North,0,8.0,21.0,53,0.00,,,-99.99,Weather View 32 v60,2013-05-15 07:45:00,
2013-05-15 02:50:00,59.0,41.9,29.80,North,0,6.0,21.0,53,0.00,,,-99.99,Weather View 32 v60,2013-05-15 07:50:00,
2013-05-15 02:55:00,58.0,40.9,29.80,NW,315,6.0,21.0,53,0.00,,,-99.99,Weather View 32 v60,2013-05-15 07:55:00,
2013-05-15 03:00:00,58.0,40.9,29.81,NNE,22,8.0,21.0,53,0.00,,,-99.99,Weather View 32 v60,2013-05-15 08:00:00,
2013-05-15 03:05:00,58.0,40.9,29.81,NNW,338,6.0,21.0,53,0.00,,,-99.99,Weather View 32 v60,2013-05-15 08:05:00,
2013-05-15 03:10:00,58.0,41.4,29.81,North,0,3.0,21.0,54,0.00,,,-99.99,Weather View 32 v60,2013-05-15 08:10:00,
2013-05-15 03:15:00,58.0,41.4,29.81,NNE,22,8.0,21.0,54,0.00,,,-99.99,Weather View 32 v60,2013-05-15 08:15:00,
2013-05-15 03:20:00,57.0,40.5,29.81,North,0,5.0,16.0,54,0.00,,,-99.99,Weather View 32 v60,2013-05-15 08:20:00,
2013-05-15 03:25:00,57.0,40.5,29.82,NW,315,3.0,16.0,54,0.00,,,-99.99,Weather View 32 v60,2013-05-15 08:25:00,
2013-05-15 03:30:00,57.0,41.0,29.82,NNE,22,8.0,16.0,55,0.00,,,-99.99,Weather View 32 v60,2013-05-15 08:30:00,
2013-05-15 03:35:00,57.0,41.0,29.82,NNW,338,5.0,15.0,55,0.00,,,-99.99,Weather View 32 v60,2013-05-15 08:35:00,
2013-05-15 03:40:00,57.0,41.0,29.82,North,0,5.0,14.0,55,0.00,,,-99.99,Weather View 32 v60,2013-05-15 08:40:00,
2013-05-15 03:45:00,56.0,40.5,29.83,NW,315,2.0,14.0,56,0.00,,,-99.99,Weather View 32 v60,2013-05-15 08:45:00,
2013-05-15 03:50:00,56.0,40.5,29.83,North,0,3.0,14.0,56,0.00,,,-99.99,Weather View 32 v60,2013-05-15 08:50:00,
2013-05-15 03:55:00,56.0,40.5,29.83,North,0,5.0,14.0,56,0.00,,,-99.99,Weather View 32 v60,2013-05-15 08:55:00,
2013-05-15 04:00:00,55.0,40.0,29.83,NNW,338,5.0,13.0,57,0.00,,,-99.99,Weather View 32 v60,2013-05-15 09:00:00,
2013-05-15 04:05:00,55.0,40.5,29.83,North,0,3.0,13.0,58,0.00,,,-99.99,Weather View 32 v60,2013-05-15 09:05:00,
2013-05-15 04:10:00,55.0,40.0,29.83,NNE,22,3.0,12.0,57,0.00,,,-99.99,Weather View 32 v60,2013-05-15 09:10:00,
2013-05-15 04:15:00,55.0,40.5,29.83,NNE,22,6.0,12.0,58,0.00,,,-99.99,Weather View 32 v60,2013-05-15 09:15:00,
2013-05-15 04:20:00,55.0,40.9,29.83,NNW,338,2.0,11.0,59,0.00,,,-99.99,Weather View 32 v60,2013-05-15 09:20:00,
2013-05-15 04:25:00,54.0,39.5,29.83,NE,45,2.0,11.0,58,0.00,,,-99.99,Weather View 32 v60,2013-05-15 09:25:00,
2013-05-15 04:35:00,54.0,40.4,29.84,NNW,338,3.0,11.0,60,0.00,,,-99.99,Weather View 32 v60,2013-05-15 09:35:00,
2013-05-15 04:45:00,54.0,40.4,29.84,NNW,338,3.0,8.0,60,0.00,,,-99.99,Weather View 32 v60,2013-05-15 09:45:00,
2013-05-15 04:50:00,53.0,39.5,29.84,NNW,338,3.0,7.0,60,0.00,,,-99.99,Weather View 32 v60,2013-05-15 09:50:00,
2013-05-15 04:55:00,53.0,39.0,29.84,NW,315,1.0,7.0,59,0.00,,,-99.99,Weather View 32 v60,2013-05-15 09:55:00,
2013-05-15 05:00:00,53.0,39.5,29.84,WNW,292,1.0,7.0,60,0.00,,,-99.99,Weather View 32 v60,2013-05-15 10:00:00,
2013-05-15 05:05:00,52.0,38.5,29.84,WNW,292,1.0,6.0,60,0.00,,,-99.99,Weather View 32 v60,2013-05-15 10:05:00,
2013-05-15 05:10:00,52.0,38.9,29.84,WNW,292,1.0,6.0,61,0.00,,,-99.99,Weather View 32 v60,2013-05-15 10:10:00,
2013-05-15 05:15:00,51.0,38.0,29.85,West,270,1.0,6.0,61,0.00,,,-99.99,Weather View 32 v60,2013-05-15 10:15:00,
2013-05-15 05:25:00,50.0,37.5,29.85,NNW,338,2.0,6.0,62,0.00,,,-99.99,Weather View 32 v60,2013-05-15 10:25:00,
2013-05-15 05:30:00,50.0,37.9,29.85,NW,315,1.0,5.0,63,0.00,,,-99.99,Weather View 32 v60,2013-05-15 10:30:00,
2013-05-15 05:35:00,49.0,37.3,29.85,WNW,292,1.0,5.0,64,0.00,,,-99.99,Weather View 32 v60,2013-05-15 10:35:00,
2013-05-15 05:45:00,49.0,37.7,29.85,WNW,292,1.0,4.0,65,0.00,,,-99.99,Weather View 32 v60,2013-05-15 10:45:00,
2013-05-15 05:50:00,49.0,38.1,29.85,WNW,292,1.0,3.0,66,0.00,,,-99.99,Weather View 32 v60,2013-05-15 10:50:00,
2013-05-15 05:55:00,49.0,38.5,29.86,West,270,1.0,3.0,67,0.00,,,-99.99,Weather View 32 v60,2013-05-15 10:55:00,
2013-05-15 06:00:00,49.0,38.5,29.86,West,270,0.0,3.0,67,0.00,,,-99.99,Weather View 32 v60,2013-05-15 11:00:00,
2013-05-15 06:10:00,48.0,37.5,29.87,WSW,248,1.0,3.0,67,0.00,,,-99.99,Weather View 32 v60,2013-05-15 11:10:00,
2013-05-15 06:15:00,48.0,37.9,29.87,West,270,1.0,3.0,68,0.00,,,-99.99,Weather View 32 v60,2013-05-15 11:15:00,
2013-05-15 06:20:00,48.0,38.3,29.88,West,270,3.0,3.0,69,0.00,,,-99.99,Weather View 32 v60,2013-05-15 11:20:00,
2013-05-15 06:25:00,48.0,38.7,29.89,WSW,248,2.0,5.0,70,0.00,,,-99.99,Weather View 32 v60,2013-05-15 11:25:00,
2013-05-15 06:30:00,48.0,38.7,29.89,West,270,2.0,5.0,70,0.00,,,-99.99,Weather View 32 v60,2013-05-15 11:30:00,
2013-05-15 06:36:00,48.0,39.0,29.89,West,270,3.0,5.0,71,0.00,,,-99.99,Weather View 32 v60,2013-05-15 11:36:00,
2013-05-15 06:45:00,49.0,40.0,29.90,West,270,3.0,5.0,71,0.00,,,-99.99,Weather View 32 v60,2013-05-15 11:45:00,
2013-05-15 06:50:00,50.0,40.6,29.91,WNW,292,2.0,5.0,70,0.00,,,-99.99,Weather View 32 v60,2013-05-15 11:50:00,
2013-05-15 07:00:00,51.0,41.5,29.91,WNW,292,3.0,6.0,70,0.00,,,-99.99,Weather View 32 v60,2013-05-15 12:00:00,
2013-05-15 07:05:00,51.0,41.2,29.92,WNW,292,3.0,6.0,69,0.00,,,-99.99,Weather View 32 v60,2013-05-15 12:05:00,
2013-05-15 07:15:00,54.0,42.9,29.92,WNW,292,5.0,8.0,66,0.00,,,-99.99,Weather View 32 v60,2013-05-15 12:15:00,
2013-05-15 07:20:00,54.0,42.5,29.93,WNW,292,3.0,8.0,65,0.00,,,-99.99,Weather View 32 v60,2013-05-15 12:20:00,
2013-05-15 07:27:00,55.0,42.6,29.93,WNW,292,4.0,10.0,63,0.00,,,-99.99,Weather View 32 v60,2013-05-15 12:27:00,
2013-05-15 07:35:00,57.0,43.7,29.94,WNW,292,6.0,10.0,61,0.00,,,-99.99,Weather View 32 v60,2013-05-15 12:35:00,
2013-05-15 07:40:00,57.0,43.2,29.94,West,270,5.0,10.0,60,0.00,,,-99.99,Weather View 32 v60,2013-05-15 12:40:00,
2013-05-15 07:50:00,58.0,43.7,29.94,North,0,3.0,13.0,59,0.00,,,-99.99,Weather View 32 v60,2013-05-15 12:50:00,
2013-05-15 07:55:00,58.0,43.3,29.94,WNW,292,3.0,13.0,58,0.00,,,-99.99,Weather View 32 v60,2013-05-15 12:55:00,
2013-05-15 08:00:00,59.0,43.8,29.94,NNW,338,4.0,13.0,57,0.00,,,-99.99,Weather View 32 v60,2013-05-15 13:00:00,
2013-05-15 08:05:00,60.0,44.7,29.94,WNW,292,6.0,13.0,57,0.00,,,-99.99,Weather View 32 v60,2013-05-15 13:05:00,
2013-05-15 08:10:00,60.0,44.2,29.94,WNW,292,4.0,13.0,56,0.00,,,-99.99,Weather View 32 v60,2013-05-15 13:10:00,
2013-05-15 08:25:00,61.0,44.2,29.94,NW,315,3.0,13.0,54,0.00,,,-99.99,Weather View 32 v60,2013-05-15 13:25:00,
2013-05-15 08:30:00,62.0,44.1,29.94,NNW,338,7.0,13.0,52,0.00,,,-99.99,Weather View 32 v60,2013-05-15 13:30:00,
2013-05-15 08:35:00,62.0,44.1,29.94,NW,315,7.0,13.0,52,0.00,,,-99.99,Weather View 32 v60,2013-05-15 13:35:00,
2013-05-15 08:40:00,62.0,44.1,29.93,North,0,4.0,13.0,52,0.00,,,-99.99,Weather View 32 v60,2013-05-15 13:40:00,
2013-05-15 08:45:00,62.0,43.6,29.93,NW,315,3.0,13.0,51,0.00,,,-99.99,Weather View 32 v60,2013-05-15 13:45:00,
2013-05-15 08:50:00,63.0,44.0,29.94,NW,315,3.0,13.0,50,0.00,,,-99.99,Weather View 32 v60,2013-05-15 13:50:00,
2013-05-15 09:00:00,64.0,43.9,29.94,North,0,4.0,13.0,48,0.00,,,-99.99,Weather View 32 v60,2013-05-15 14:00:00,
2013-05-15 09:05:00,64.0,43.3,29.94,NW,315,6.0,13.0,47,0.00,,,-99.99,Weather View 32 v60,2013-05-15 14:05:00,
2013-05-15 09:11:00,65.0,43.7,29.94,NW,315,5.0,13.0,46,0.00,,,-99.99,Weather View 32 v60,2013-05-15 14:11:00,
2013-05-15 09:20:00,66.0,43.4,29.93,NNW,338,6.0,13.0,44,0.00,,,-99.99,Weather View 32 v60,2013-05-15 14:20:00,
2013-05-15 09:25:00,66.0,42.8,29.93,NW,315,5.0,13.0,43,0.00,,,-99.99,Weather View 32 v60,2013-05-15 14:25:00,
2013-05-15 09:35:00,67.0,42.5,29.93,WNW,292,4.0,11.0,41,0.00,,,-99.99,Weather View 32 v60,2013-05-15 14:35:00,
2013-05-15 09:41:00,67.0,40.5,29.93,NW,315,5.0,11.0,38,0.00,,,-99.99,Weather View 32 v60,2013-05-15 14:41:00,
2013-05-15 09:50:00,68.0,41.4,29.93,West,270,5.0,10.0,38,0.00,,,-99.99,Weather View 32 v60,2013-05-15 14:50:00,
2013-05-15 09:55:00,68.0,41.4,29.92,West,270,2.0,10.0,38,0.00,,,-99.99,Weather View 32 v60,2013-05-15 14:55:00,
2013-05-15 10:00:00,69.0,41.6,29.92,West,270,7.0,9.0,37,0.00,,,-99.99,Weather View 32 v60,2013-05-15 15:00:00,
2013-05-15 10:05:00,69.0,39.4,29.92,WNW,292,3.0,9.0,34,0.00,,,-99.99,Weather View 32 v60,2013-05-15 15:05:00,
2013-05-15 10:11:00,68.0,39.3,29.92,NNW,338,4.0,10.0,35,0.00,,,-99.99,Weather View 32 v60,2013-05-15 15:11:00,
2013-05-15 10:20:00,69.0,38.6,29.92,WNW,292,4.0,10.0,33,0.00,,,-99.99,Weather View 32 v60,2013-05-15 15:20:00,
2013-05-15 10:40:00,71.0,38.8,29.90,NNW,338,6.0,14.0,31,0.00,,,-99.99,Weather View 32 v60,2013-05-15 15:40:00,
2013-05-15 11:50:00,74.0,38.7,29.89,West,270,4.0,10.0,28,0.00,,,-99.99,Weather View 32 v60,2013-05-15 16:50:00,
2013-05-15 12:00:00,75.0,38.7,29.89,NNW,338,5.0,11.0,27,0.00,,,-99.99,Weather View 32 v60,2013-05-15 17:00:00,
2013-05-15 12:05:00,75.0,38.7,29.89,NNW,338,9.0,11.0,27,0.00,,,-99.99,Weather View 32 v60,2013-05-15 17:05:00,
2013-05-15 12:15:00,76.0,38.5,29.89,NNW,338,8.0,17.0,26,0.00,,,-99.99,Weather View 32 v60,2013-05-15 17:15:00,
2013-05-15 12:20:00,75.0,36.7,29.89,NNW,338,13.0,17.0,25,0.00,,,-99.99,Weather View 32 v60,2013-05-15 17:20:00,
2013-05-15 12:30:00,75.0,37.7,29.89,WNW,292,5.0,17.0,26,0.00,,,-99.99,Weather View 32 v60,2013-05-15 17:30:00,
2013-05-15 12:35:00,76.0,37.5,29.89,West,270,6.0,17.0,25,0.00,,,-99.99,Weather View 32 v60,2013-05-15 17:35:00,
2013-05-15 12:40:00,76.0,37.5,29.89,NNW,338,10.0,17.0,25,0.00,,,-99.99,Weather View 32 v60,2013-05-15 17:40:00,
2013-05-15 12:47:00,77.0,37.3,29.89,NW,315,10.0,19.0,24,0.00,,,-99.99,Weather View 32 v60,2013-05-15 17:47:00,
2013-05-15 12:55:00,77.0,37.3,29.89,NE,45,7.0,19.0,24,0.00,,,-99.99,Weather View 32 v60,2013-05-15 17:55:00,
2013-05-15 13:00:00,77.0,37.3,29.89,NNW,338,6.0,19.0,24,0.00,,,-99.99,Weather View 32 v60,2013-05-15 18:00:00,
2013-05-15 13:05:00,78.0,36.0,29.89,NNW,338,11.0,22.0,22,0.00,,,-99.99,Weather View 32 v60,2013-05-15 18:05:00,
2013-05-15 13:15:00,78.0,36.0,29.88,NNE,22,10.0,22.0,22,0.00,,,-99.99,Weather View 32 v60,2013-05-15 18:15:00,
2013-05-15 13:20:00,78.0,36.0,29.88,North,0,5.0,22.0,22,0.00,,,-99.99,Weather View 32 v60,2013-05-15 18:20:00,
2013-05-15 13:25:00,78.0,34.8,29.88,WNW,292,5.0,22.0,21,0.00,,,-99.99,Weather View 32 v60,2013-05-15 18:25:00,
2013-05-15 13:30:00,78.0,34.8,29.88,NW,315,8.0,22.0,21,0.00,,,-99.99,Weather View 32 v60,2013-05-15 18:30:00,
2013-05-15 13:35:00,79.0,35.6,29.87,NNE,22,9.0,22.0,21,0.00,,,-99.99,Weather View 32 v60,2013-05-15 18:35:00,
2013-05-15 13:40:00,79.0,35.6,29.87,NNW,338,2.0,22.0,21,0.00,,,-99.99,Weather View 32 v60,2013-05-15 18:40:00,
2013-05-15 13:46:00,80.0,35.2,29.87,NW,315,8.0,22.0,20,0.00,,,-99.99,Weather View 32 v60,2013-05-15 18:46:00,
2013-05-15 13:55:00,79.0,34.4,29.86,SSE,158,1.0,22.0,20,0.00,,,-99.99,Weather View 32 v60,2013-05-15 18:55:00,
2013-05-15 14:05:00,80.0,33.9,29.87,WNW,292,4.0,22.0,19,0.00,,,-99.99,Weather View 32 v60,2013-05-15 19:05:00,
2013-05-15 14:11:00,80.0,32.6,29.86,NNE,22,8.0,21.0,18,0.00,,,-99.99,Weather View 32 v60,2013-05-15 19:11:00,
2013-05-15 14:20:00,81.0,30.5,29.85,North,0,13.0,21.0,16,0.00,,,-99.99,Weather View 32 v60,2013-05-15 19:20:00,
2013-05-15 14:30:00,79.0,31.8,29.85,WNW,292,8.0,29.0,18,0.00,,,-99.99,Weather View 32 v60,2013-05-15 19:30:00,
2013-05-15 14:40:00,78.0,32.3,29.85,NW,315,13.0,29.0,19,0.00,,,-99.99,Weather View 32 v60,2013-05-15 19:40:00,
2013-05-15 14:45:00,78.0,33.6,29.85,NNW,338,6.0,29.0,20,0.00,,,-99.99,Weather View 32 v60,2013-05-15 19:45:00,
2013-05-15 14:50:00,79.0,34.4,29.85,NNE,22,10.0,29.0,20,0.00,,,-99.99,Weather View 32 v60,2013-05-15 19:50:00,
2013-05-15 14:55:00,80.0,33.9,29.85,North,0,6.0,29.0,19,0.00,,,-99.99,Weather View 32 v60,2013-05-15 19:55:00,
2013-05-15 15:00:00,80.0,33.9,29.84,NW,315,8.0,29.0,19,0.00,,,-99.99,Weather View 32 v60,2013-05-15 20:00:00,
2013-05-15 15:05:00,80.0,35.2,29.84,WNW,292,5.0,29.0,20,0.00,,,-99.99,Weather View 32 v60,2013-05-15 20:05:00,
2013-05-15 15:10:00,80.0,33.9,29.84,NW,315,6.0,29.0,19,0.00,,,-99.99,Weather View 32 v60,2013-05-15 20:10:00,
2013-05-15 15:20:00,81.0,34.7,29.83,NNW,338,13.0,29.0,19,0.00,,,-99.99,Weather View 32 v60,2013-05-15 20:20:00,
2013-05-15 15:25:00,81.0,34.7,29.83,NNE,22,6.0,21.0,19,0.00,,,-99.99,Weather View 32 v60,2013-05-15 20:25:00,
2013-05-15 15:30:00,80.0,32.6,29.83,NE,45,5.0,21.0,18,0.00,,,-99.99,Weather View 32 v60,2013-05-15 20:30:00,
2013-05-15 15:40:00,81.0,34.7,29.83,NW,315,11.0,21.0,19,0.00,,,-99.99,Weather View 32 v60,2013-05-15 20:40:00,
2013-05-15 15:49:00,80.0,33.9,29.82,NNE,22,5.0,21.0,19,0.00,,,-99.99,Weather View 32 v60,2013-05-15 20:49:00,
2013-05-15 16:00:00,80.0,32.6,29.82,NW,315,2.0,18.0,18,0.00,,,-99.99,Weather View 32 v60,2013-05-15 21:00:00,
2013-05-15 16:06:00,80.0,32.6,29.82,North,0,11.0,18.0,18,0.00,,,-99.99,Weather View 32 v60,2013-05-15 21:06:00,
2013-05-15 16:15:00,80.0,32.6,29.82,North,0,5.0,18.0,18,0.00,,,-99.99,Weather View 32 v60,2013-05-15 21:15:00,
2013-05-15 16:20:00,80.0,32.6,29.82,WSW,248,3.0,18.0,18,0.00,,,-99.99,Weather View 32 v60,2013-05-15 21:20:00,
2013-05-15 16:26:00,80.0,32.6,29.82,NNW,338,6.0,21.0,18,0.00,,,-99.99,Weather View 32 v60,2013-05-15 21:26:00,
2013-05-15 16:40:00,81.0,32.0,29.81,WNW,292,7.0,22.0,17,0.00,,,-99.99,Weather View 32 v60,2013-05-15 21:40:00,
2013-05-15 16:49:00,82.0,32.8,29.81,North,0,10.0,22.0,17,0.00,,,-99.99,Weather View 32 v60,2013-05-15 21:49:00,
2013-05-15 16:56:00,82.0,32.8,29.81,North,0,5.0,22.0,17,0.00,,,-99.99,Weather View 32 v60,2013-05-15 21:56:00,
2013-05-15 17:06:00,81.0,32.0,29.81,North,0,14.0,22.0,17,0.00,,,-99.99,Weather View 32 v60,2013-05-15 22:06:00,
2013-05-15 17:15:00,81.0,32.0,29.81,North,0,6.0,22.0,17,0.00,,,-99.99,Weather View 32 v60,2013-05-15 22:15:00,
2013-05-15 17:20:00,81.0,32.0,29.81,NE,45,3.0,22.0,17,0.00,,,-99.99,Weather View 32 v60,2013-05-15 22:20:00,
2013-05-15 17:26:00,82.0,31.3,29.81,NW,315,7.0,22.0,16,0.00,,,-99.99,Weather View 32 v60,2013-05-15 22:26:00,
2013-05-15 17:35:00,82.0,31.3,29.80,WNW,292,3.0,22.0,16,0.00,,,-99.99,Weather View 32 v60,2013-05-15 22:35:00,
2013-05-15 17:40:00,82.0,31.3,29.80,North,0,6.0,18.0,16,0.00,,,-99.99,Weather View 32 v60,2013-05-15 22:40:00,
2013-05-15 17:45:00,82.0,31.3,29.80,WNW,292,2.0,18.0,16,0.00,,,-99.99,Weather View 32 v60,2013-05-15 22:45:00,
2013-05-15 17:50:00,81.0,28.9,29.80,NNW,338,10.0,18.0,15,0.00,,,-99.99,Weather View 32 v60,2013-05-15 22:50:00,
2013-05-15 18:00:00,81.0,30.5,29.80,West,270,6.0,14.0,16,0.00,,,-99.99,Weather View 32 v60,2013-05-15 23:00:00,
2013-05-15 18:10:00,81.0,30.5,29.79,NE,45,4.0,13.0,16,0.00,,,-99.99,Weather View 32 v60,2013-05-15 23:10:00,
2013-05-15 18:15:00,81.0,28.9,29.79,NW,315,6.0,18.0,15,0.00,,,-99.99,Weather View 32 v60,2013-05-15 23:15:00,
2013-05-15 18:25:00,80.0,28.1,29.79,WNW,292,4.0,18.0,15,0.00,,,-99.99,Weather View 32 v60,2013-05-15 23:25:00,
2013-05-15 18:31:00,79.0,28.9,29.79,WNW,292,5.0,18.0,16,0.00,,,-99.99,Weather View 32 v60,2013-05-15 23:31:00,
2013-05-15 18:40:00,80.0,29.7,29.79,North,0,4.0,18.0,16,0.00,,,-99.99,Weather View 32 v60,2013-05-15 23:40:00,
2013-05-15 18:45:00,79.0,28.9,29.80,NNW,338,6.0,18.0,16,0.00,,,-99.99,Weather View 32 v60,2013-05-15 23:45:00,
2013-05-15 18:50:00,79.0,30.4,29.79,North,0,5.0,18.0,17,0.00,,,-99.99,Weather View 32 v60,2013-05-15 23:50:00,
2013-05-15 18:55:00,79.0,28.9,29.79,North,0,5.0,18.0,16,0.00,,,-99.99,Weather View 32 v60,2013-05-15 23:55:00,
2013-05-15 19:00:00,79.0,28.9,29.80,NNW,338,5.0,18.0,16,0.00,,,-99.99,Weather View 32 v60,2013-05-16 00:00:00,
2013-05-15 19:05:00,78.0,28.1,29.80,North,0,4.0,18.0,16,0.00,,,-99.99,Weather View 32 v60,2013-05-16 00:05:00,
2013-05-15 19:10:00,78.0,29.5,29.80,NW,315,5.0,18.0,17,0.00,,,-99.99,Weather View 32 v60,2013-05-16 00:10:00,
2013-05-15 19:15:00,77.0,28.7,29.80,North,0,4.0,14.0,17,0.00,,,-99.99,Weather View 32 v60,2013-05-16 00:15:00,
2013-05-15 19:20:00,77.0,28.7,29.80,North,0,3.0,14.0,17,0.00,,,-99.99,Weather View 32 v60,2013-05-16 00:20:00,
2013-05-15 19:25:00,77.0,28.7,29.80,NNW,338,2.0,14.0,17,0.00,,,-99.99,Weather View 32 v60,2013-05-16 00:25:00,
2013-05-15 19:30:00,77.0,28.7,29.80,NNW,338,2.0,14.0,17,0.00,,,-99.99,Weather View 32 v60,2013-05-16 00:30:00,
2013-05-15 19:35:00,77.0,28.7,29.80,NNE,22,3.0,14.0,17,0.00,,,-99.99,Weather View 32 v60,2013-05-16 00:35:00,
2013-05-15 19:40:00,77.0,28.7,29.80,NW,315,2.0,14.0,17,0.00,,,-99.99,Weather View 32 v60,2013-05-16 00:40:00,
2013-05-15 19:45:00,77.0,28.7,29.80,West,270,1.0,14.0,17,0.00,,,-99.99,Weather View 32 v60,2013-05-16 00:45:00,
2013-05-15 19:51:00,77.0,30.1,29.80,NNW,338,2.0,14.0,18,0.00,,,-99.99,Weather View 32 v60,2013-05-16 00:51:00,
2013-05-15 20:00:00,76.0,30.7,29.80,West,270,1.0,13.0,19,0.00,,,-99.99,Weather View 32 v60,2013-05-16 01:00:00,
2013-05-15 20:05:00,75.0,31.1,29.80,WSW,248,1.0,11.0,20,0.00,,,-99.99,Weather View 32 v60,2013-05-16 01:05:00,
2013-05-15 20:10:00,75.0,31.1,29.80,West,270,1.0,10.0,20,0.00,,,-99.99,Weather View 32 v60,2013-05-16 01:10:00,
2013-05-15 20:20:00,72.0,29.8,29.80,SW,225,0.0,7.0,21,0.00,,,-99.99,Weather View 32 v60,2013-05-16 01:20:00,
2013-05-15 20:30:00,71.0,30.1,29.81,SW,225,0.0,4.0,22,0.00,,,-99.99,Weather View 32 v60,2013-05-16 01:30:00,
2013-05-15 20:35:00,70.0,31.5,29.81,SW,225,0.0,4.0,24,0.00,,,-99.99,Weather View 32 v60,2013-05-16 01:35:00,
2013-05-15 20:46:00,68.0,31.8,29.81,SW,225,0.0,3.0,26,0.00,,,-99.99,Weather View 32 v60,2013-05-16 01:46:00,
2013-05-15 20:51:00,67.0,31.8,29.81,SW,225,0.0,3.0,27,0.00,,,-99.99,Weather View 32 v60,2013-05-16 01:51:00,
2013-05-15 21:00:00,65.0,31.9,29.81,SW,225,0.0,3.0,29,0.00,,,-99.99,Weather View 32 v60,2013-05-16 02:00:00,
2013-05-15 21:15:00,64.0,34.3,29.82,SW,225,0.0,1.0,33,0.00,,,-99.99,Weather View 32 v60,2013-05-16 02:15:00,
2013-05-15 21:20:00,64.0,34.3,29.82,SW,225,1.0,1.0,33,0.00,,,-99.99,Weather View 32 v60,2013-05-16 02:20:00,
2013-05-15 21:26:00,63.0,34.1,29.82,SW,225,0.0,1.0,34,0.00,,,-99.99,Weather View 32 v60,2013-05-16 02:26:00,
2013-05-15 21:35:00,62.0,34.0,29.82,SW,225,0.0,1.0,35,0.00,,,-99.99,Weather View 32 v60,2013-05-16 02:35:00,
2013-05-15 21:40:00,61.0,33.8,29.82,SW,225,0.0,1.0,36,0.00,,,-99.99,Weather View 32 v60,2013-05-16 02:40:00,
2013-05-15 21:45:00,61.0,34.5,29.82,SW,225,0.0,1.0,37,0.00,,,-99.99,Weather View 32 v60,2013-05-16 02:45:00,
2013-05-15 21:50:00,60.0,34.3,29.82,SW,225,0.0,1.0,38,0.00,,,-99.99,Weather View 32 v60,2013-05-16 02:50:00,
2013-05-15 21:55:00,60.0,34.3,29.82,SW,225,0.0,1.0,38,0.00,,,-99.99,Weather View 32 v60,2013-05-16 02:55:00,
2013-05-15 22:06:00,59.0,34.7,29.82,WSW,248,0.0,1.0,40,0.00,,,-99.99,Weather View 32 v60,2013-05-16 03:06:00,
2013-05-15 22:15:00,59.0,35.9,29.82,SW,225,0.0,1.0,42,0.00,,,-99.99,Weather View 32 v60,2013-05-16 03:15:00,
2013-05-15 22:25:00,58.0,35.6,29.83,WSW,248,0.0,3.0,43,0.00,,,-99.99,Weather View 32 v60,2013-05-16 03:25:00,
2013-05-15 22:30:00,58.0,36.2,29.83,SW,225,1.0,3.0,44,0.00,,,-99.99,Weather View 32 v60,2013-05-16 03:30:00,
2013-05-15 22:35:00,58.0,37.3,29.83,South,180,1.0,3.0,46,0.00,,,-99.99,Weather View 32 v60,2013-05-16 03:35:00,
2013-05-15 22:40:00,58.0,37.8,29.83,SSW,202,1.0,3.0,47,0.00,,,-99.99,Weather View 32 v60,2013-05-16 03:40:00,
2013-05-15 22:45:00,58.0,37.8,29.83,SSW,202,1.0,3.0,47,0.00,,,-99.99,Weather View 32 v60,2013-05-16 03:45:00,
2013-05-15 22:53:00,58.0,38.9,29.83,SSW,202,1.0,3.0,49,0.00,,,-99.99,Weather View 32 v60,2013-05-16 03:53:00,
2013-05-15 23:01:00,58.0,39.4,29.83,South,180,1.0,3.0,50,0.00,,,-99.99,Weather View 32 v60,2013-05-16 04:01:00,
2013-05-15 23:05:00,57.0,38.0,29.83,SSW,202,1.0,3.0,49,0.00,,,-99.99,Weather View 32 v60,2013-05-16 04:05:00,
2013-05-15 23:10:00,57.0,38.5,29.83,SE,135,1.0,3.0,50,0.00,,,-99.99,Weather View 32 v60,2013-05-16 04:10:00,
2013-05-15 23:15:00,57.0,39.0,29.84,East,90,7.0,8.0,51,0.00,,,-99.99,Weather View 32 v60,2013-05-16 04:15:00,
2013-05-15 23:25:00,58.0,39.4,29.84,SSW,202,2.0,8.0,50,0.00,,,-99.99,Weather View 32 v60,2013-05-16 04:25:00,
2013-05-15 23:30:00,58.0,39.4,29.84,South,180,2.0,8.0,50,0.00,,,-99.99,Weather View 32 v60,2013-05-16 04:30:00,
2013-05-15 23:35:00,58.0,39.4,29.85,SSE,158,3.0,8.0,50,0.00,,,-99.99,Weather View 32 v60,2013-05-16 04:35:00,
2013-05-15 23:40:00,58.0,39.4,29.84,SSW,202,1.0,8.0,50,0.00,,,-99.99,Weather View 32 v60,2013-05-16 04:40:00,
2013-05-15 23:45:00,58.0,39.4,29.85,NNW,338,1.0,8.0,50,0.00,,,-99.99,Weather View 32 v60,2013-05-16 04:45:00,
2013-05-15 23:50:00,57.0,38.5,29.84,SSW,202,1.0,8.0,50,0.00,,,-99.99,Weather View 32 v60,2013-05-16 04:50:00,
2013-05-15 23:55:00,57.0,39.0,29.85,SSE,158,1.0,8.0,51,0.00,,,-99.99,Weather View 32 v60,2013-05-16 04:55:00,